カタログに戻る

STARLINK-3278

運用中通信VLEO
NORAD 50830·PAYLOAD·🇺🇸 United States

打ち上げ Jan 6, 2022 から Cape Canaveral Space Force Station

Loading…

次のパス (今後24時間)

TLE

最新Source: CelesTrak SupGP

元期: Sep 14, 2026, 13:45 UTC

1 50830C 22001AD  26257.57340278 -.00027208  00000+0 -80385-3 0  2573
2 50830  53.1592  37.0656 0001037  87.4840  36.7380 15.34405018    11

AllMySatでSTARLINK-3278をリアルタイム追跡

Download on the App Store